Terminal Aerodrome Forecast
Issued by NWS

Home | Current Version | Previous Version | Text Only | Print | Product List | Glossary On
Versions: 1 2 3 4 5 6 7 8 9 10 11 12 13 14 15 16
414
FTUS42 KJAX 101911 AAA
TAFVQQ
TAF AMD
KVQQ 101911Z 1019/1118 04011KT P6SM SCT035
      TEMPO 1019/1023 BKN035
     FM102300 03008KT P6SM SCT030
     FM110600 03005KT P6SM BKN030
     FM111500 09007KT P6SM VCSH BKN040=

USA.gov is the U.S. government's official web portal to all federal, state and local government web resources and services.